This is the latest recevied weather packets stored in our database for station/object N7WSS. If no packets are shown the sender has not sent any weather packets the latest 10 day(s).
| Time | Temp. | Humidity | Pressure | Rain* | Wind** | Luminosity | Snow |
|---|---|---|---|---|---|---|---|
| 1788376414 | 32.78° C | 45% | 1015.5 hPa | 0 mm | - | - | - |
| 1788376110 | 32.78° C | 44% | 1015.5 hPa | 0 mm | - | - | - |
| 1788375809 | 33.89° C | 41% | 1015.7 hPa | 0 mm | - | - | - |
| 1788375505 | 33.33° C | 42% | 1016 hPa | 0 mm | - | - | - |
| 1788375200 | 32.22° C | 45% | 1016.1 hPa | 0 mm | - | - | - |
| 1788374896 | 32.22° C | 46% | 1015.9 hPa | 0 mm | - | - | - |
| 1788374591 | 33.33° C | 45% | 1016.1 hPa | 0 mm | - | - | - |
| 1788374287 | 33.33° C | 44% | 1016.1 hPa | 0 mm | - | - | - |
| 1788373983 | 33.89° C | 44% | 1016.3 hPa | 0 mm | - | - | - |
| 1788373679 | 33.89° C | 44% | 1016.1 hPa | 0 mm | - | - | - |
| 1788373375 | 33.89° C | 45% | 1016.2 hPa | 0 mm | - | - | - |
| 1788373071 | 32.78° C | 44% | 1016.2 hPa | 0 mm | - | - | - |
| 1788372772 | 32.78° C | 46% | 1016.3 hPa | 0 mm | - | - | - |
| 1788372466 | 32.78° C | 45% | 1016.3 hPa | 0 mm | - | - | - |
| 1788372162 | 32.78° C | 45% | 1016.4 hPa | 0 mm | - | - | - |
| 1788371857 | 32.22° C | 46% | 1016.6 hPa | 0 mm | - | - | - |
| 1788371553 | 32.22° C | 47% | 1016.3 hPa | 0 mm | - | - | - |
| 1788371248 | 32.78° C | 46% | 1016.5 hPa | 0 mm | - | - | - |
| 1788370944 | 32.22° C | 47% | 1016.4 hPa | 0 mm | - | - | - |
| 1788370640 | 32.22° C | 46% | 1016.4 hPa | 0 mm | - | - | - |
| 1788370339 | 32.22° C | 47% | 1016.6 hPa | 0 mm | - | - | - |
| 1788370034 | 32.78° C | 47% | 1016.6 hPa | 0 mm | - | - | - |
| 1788369734 | 31.67° C | 47% | 1016.8 hPa | 0 mm | - | - | - |
| 1788369429 | 31.67° C | 49% | 1016.6 hPa | 0 mm | - | - | - |
| 1788369124 | 31.11° C | 51% | 1016.6 hPa | 0 mm | - | - | - |
* Rain latest hour (hover to see other rain measurements)
** Current wind speed in m/s (hover to see current wind gust speed)